Location: Balsareny
(41.8670°N, 1.8830°E)
Time: 00:12:09
(UTC+02:00)

Envisat - Pass Details

Date: 20 August 2024
Orbit: 762 x 764 km, 98.3° (Epoch: 08 September)

Event Time Altitude Azimuth Distance (km) Brightness Sun altitude
Rises 04:12:04 0° 25° (NNE) 3,234 7.4 -27.4°
Reaches altitude 10° 04:14:43 10° 37° (NE) 2,303 6.5 -27.1°
Maximum altitude 04:19:00 27° 95° (E) 1,434 4.7 -26.6°
Enters shadow 04:21:18 19° 135° (SE) 1,731 4.8 -26.3°
